EDT,Max TemperatureF,Mean TemperatureF,Min TemperatureF,Max Dew PointF,MeanDew PointF,Min DewpointF,Max Humidity, Mean Humidity, Min Humidity, Max Sea Level PressureIn, Mean Sea Level PressureIn, Min Sea Level PressureIn, Max VisibilityMiles, Mean VisibilityMiles, Min VisibilityMiles, Max Wind SpeedMPH, Mean Wind SpeedMPH, Max Gust SpeedMPH,PrecipitationIn, CloudCover, Events, WindDirDegrees
2013-7-1,80,73,66,70,67,63,94,83,65,30.09,30.01,29.93,10,8,2,8,2,,1.65,6,,183
2013-7-2,71,64,57,68,60,54,94,87,82,30.23,30.17,30.08,10,3,0,16,4,20,0.07,8,,48
2013-7-3,86,72,57,72,64,54,94,80,58,30.22,30.17,30.09,10,6,1,10,3,,0.00,4,,209
2013-7-4,91,81,71,72,70,66,88,67,49,30.18,30.12,30.06,10,10,5,14,7,,0.00,1,,228
2013-7-5,93,82,71,72,70,66,88,66,46,30.14,30.08,30.00,10,10,2,14,5,18,0.00,1,,234
2013-7-6,89,78,66,70,66,61,88,64,43,30.05,30.01,29.95,10,10,9,14,6,21,0.00,1,,264
2013-7-7,89,76,62,73,64,59,88,68,40,30.00,29.96,29.91,10,10,2,12,5,17,0.01,0,Thunderstorm,254
2013-7-8,75,68,62,68,63,57,94,80,64,30.08,29.99,29.91,10,8,2,10,3,,0.11,7,Thunderstorm,48
2013-7-9,73,68,62,63,61,59,94,84,69,30.13,30.10,30.07,10,8,1,8,3,,0.00,8,,66
2013-7-10,69,64,60,66,62,57,94,90,88,30.10,29.95,29.79,10,2,0,8,3,,0.33,8,Thunderstorm,93
2013-7-11,82,75,68,72,68,63,94,84,66,29.96,29.83,29.76,10,7,1,9,3,,0.03,7,,225
2013-7-12,78,69,60,63,56,54,88,65,47,30.22,30.12,29.96,10,10,4,13,7,17,0.00,1,,47
2013-7-13,80,68,55,61,57,52,94,70,44,30.33,30.29,30.22,10,10,8,8,2,,0.00,3,,136
2013-7-14,86,74,62,72,65,57,94,73,48,30.30,30.25,30.20,10,10,4,8,3,,0.00,3,,291
2013-7-15,91,78,66,70,66,63,94,64,41,30.20,30.15,30.08,10,10,5,9,2,,0.00,3,,309
2013-7-16,91,78,64,70,65,61,88,64,38,30.17,30.13,30.11,10,10,6,13,4,18,0.00,1,,309
2013-7-17,93,78,64,72,67,61,94,70,41,30.18,30.09,29.97,10,8,2,21,3,31,0.06,1,Thunderstorm,210
2013-7-18,89,78,68,72,67,64,88,76,49,30.02,29.99,29.94,10,10,4,9,4,16,0.12,1,Thunderstorm,200
2013-7-19,95,80,66,73,69,63,94,69,44,29.95,29.80,29.67,10,8,2,22,5,30,0.00,0,,227
2013-7-20,91,78,64,72,64,61,88,58,40,29.79,29.69,29.63,10,10,10,17,9,28,0.00,1,,244
2013-7-21,75,67,59,63,58,54,94,70,50,30.02,29.94,29.79,10,10,6,10,3,,0.00,2,,143
2013-7-22,75,68,60,64,61,57,94,81,64,30.05,30.00,29.92,10,10,7,9,3,,0.00,7,,65
2013-7-23,69,66,62,64,62,59,94,88,83,29.92,29.68,29.56,10,9,3,10,5,,0.83,7,,21
2013-7-24,84,72,60,68,60,48,94,69,47,29.97,29.70,29.58,10,8,0,13,4,23,0.00,3,,294
2013-7-25,68,62,55,57,50,45,88,66,52,30.12,30.08,29.97,10,10,6,14,7,,0.16,7,,42
2013-7-26,73,66,60,63,59,55,88,80,65,30.08,29.98,29.91,10,10,10,17,8,24,0.13,8,,346
2013-7-27,82,70,59,63,58,54,88,67,37,30.03,30.00,29.95,10,9,4,12,5,18,0.01,1,,229
2013-7-28,68,62,57,63,60,54,94,88,82,30.04,30.02,30.00,10,4,1,14,3,16,0.02,7,,70
2013-7-29,77,70,62,66,62,59,94,86,69,30.05,30.02,29.99,10,7,0,9,2,,0.00,7,,107
2013-7-30,78,66,55,61,55,48,94,66,34,30.09,30.05,30.02,10,8,0,16,4,22,0.00,2,,292
2013-7-31,80,66,51,57,54,48,88,66,39,30.13,30.08,30.05,10,10,7,9,3,,0.00,1,,227